Regional Weather Roundup
Issued by NWS Grand Forks, ND

Home | Current Version | Previous Version | Graphics & Text | Print | Product List | Glossary On
Versions: 1 2 3 4 5 6 7 8 9 10 11 12 13 14 15 16 17 18 19 20 21 22 23 24 25 26 27 28 29 30 31 32 33 34 35 36 37 38 39 40 41 42 43 44 45 46 47 48 49 50
000
ASUS43 KFGF 171410
RWRFGF
PRAIRIE TO PINES  WEATHER ROUNDUP
NATIONAL WEATHER SERVICE EASTERN NORTH DAKOTA/GRAND FORKS ND
800 AM CST WED DEC 17 2014

 **SATELLITE DATA USED TO AUGMENT SKY COVER AT AUTOMATED STATIONS**
 *****  WEATHER ACROSS EASTERN NORTH DAKOTA  *****

CITY           SKY/WX    TMP DP  RH WIND       PRES   REMARKS
GRAND FORKS    MOCLDY    -1  -5  82 NW5       30.37S WCI -11
GRAND FRKS AFB MOCLDY     0  -2  92 NW5       30.37S WCI -10
DEVILS LAKE    CLEAR      0 -11  60 CALM      30.30S
FARGO          PTCLDY     2  -2  83 NW6       30.37S WCI  -9
WAHPETON ARPT  MOSUNNY    3   0  85 CALM      30.37S
$$

 ***** WEATHER ACROSS CENTRAL AND WESTERN NORTH DAKOTA  *****

CITY           SKY/WX    TMP DP  RH WIND       PRES   REMARKS
BISMARCK       CLOUDY    14  10  84 SE8       30.28F WCI   3
MINOT          CLOUDY    10   5  80 SE8       30.26S WCI  -2
JAMESTOWN      MOCLDY    -2  -6  83 NE3       30.32S
MINOT AFB      CLOUDY    10  10  98 SE8       30.26F WCI  -1
GARRISON         N/A     15  11  83 SE12      30.23S WCI   2
WILLISTON      CLOUDY    18  12  77 S10       30.17S WCI   6
DICKINSON      FLURRIES  15  11  83 SE13      30.13R WCI   1
HETTINGER      CLOUDY    15  13  91 SE13      30.14R WCI   1
$$

 *****  OTHER AIRPORT OBSERVATIONS IN OUR AREA  *****

CITY           SKY/WX    TMP DP  RH WIND       PRES   REMARKS
WALHALLA         N/A     -2  -4  92 SW3       30.38R
GRAFTON AIRPOR NOT AVBL
VALLEY CITY AR FAIR       0   0 100 CALM      30.33S
CANDO          PTSUNNY   -4  -8  84 CALM      30.32S
CAVALIER APRT  FAIR       1   0  92 CALM      30.38R
GWINNER        SUNNY      5   1  85 MISG      30.35F
SHEYENNE NWR     N/A      1  -4  80 N2        29.95
ROLLA          CLOUDY    -4  -8  84 SW7       30.28S FOG     WCI -18
 ***** THE ABOVE OBSERVATIONS ARE NON NWS ARE NOT QUALITY
       CONTROLLED AND MAY MIS-REPORT RAIN FOR SNOW...
$$

  *****  WEATHER ACROSS NORTHERN MINNESOTA  *****

CITY           SKY/WX    TMP DP  RH WIND       PRES   REMARKS
FLAG ISLAND    MOCLDY     7   3  85 N6        30.33S WCI  -3
WARROAD        FLURRIES   3   0  85 NW3       30.33F
ROSEAU         PTCLDY     3  -2  78 N3        30.34S
HALLOCK        PTCLDY     0  -4  85 N3        30.37S
THF RVR FALLS  CLEAR      3   1  92 CALM      30.33S
BAUDETTE       MOCLDY    11   7  84 N7        30.30F WCI   0
WASKISH        FLURRIES  12  10  92 CALM      30.30S
CROOKSTON      PTCLDY     0  -2  92 NW3       30.38R
STEPHEN NDAWN    N/A      0  -4  85 VRB3        N/A
GREENBUSH NDAW   N/A      1  -2  85 NW3         N/A
$$
  *****  WEATHER ACROSS CENTRAL AND WEST MINNESOTA  *****

CITY           SKY/WX    TMP DP  RH WIND       PRES   REMARKS
FOSSTON        PTCLDY    -2  -6  84 CALM      30.31F
BEMIDJI        SNOW       8   5  89 NW3       30.28S VSB 1/2
PARK RAPIDS    PTCLDY     4   1  88 NW5       30.26S WCI  -5
ELBOW LAKE     FAIR       1  -1  88 W6        30.32F WCI -10
WADENA         MOCLDY     3   1  92 NW5       30.27S WCI  -6
DETROIT LAKES  MOCLDY     3   1  92 NW5       30.30S WCI  -6
MOORHEAD       PTCLDY     1   1 100 N3        30.37S
FERGUS FALLS   PTCLDY     0  -4  85 W7        30.37S WCI -13
MORRIS MN      PTCLDY     3   1  92 NW8       30.32F WCI -10
STAPLES        PTCLDY     5   3  92 W5        30.27S WCI  -4
$$
  *****  WEATHER ELSEWHERE ACROSS MINNESOTA  *****

CITY           SKY/WX    TMP DP  RH WIND       PRES   REMARKS
DULUTH         PTCLDY    10   5  80 NW8       30.20R WCI  -2
INTRNTL FALLS  CLOUDY    12   6  77 N6        30.29S WCI   3
ELY            LGT SNOW   9   7  92 NW3       30.21S
CLOQUET        FLURRIES  10   7  85 NW7       30.22S WCI   0
WHEATON        FLURRIES   0  -2  92 W5        30.38S WCI -10
BRAINERD       MOCLDY     8   6  92 CALM      30.27R
HIBBING        CLOUDY    12   6  77 N10       30.24R WCI  -1
ALEXANDRIA     PTCLDY     4   0  83 W9        30.29S WCI -10
SAINT CLOUD    PTCLDY     9   4  80 W5        30.29F WCI   1
MINNEAPOLIS    MOCLDY     9   5  84 NW8       30.32R WCI  -3
$$

  *****  WEATHER ACROSS SOUTH DAKOTA  *****

CITY           SKY/WX    TMP DP  RH WIND       PRES   REMARKS
SIOUX FALLS    PTCLDY    -1  -2  95 CALM      30.32R
BROOKINGS      NOT AVBL
WATERTOWN      PTCLDY     1  -3  83 CALM      30.29S
HURON          CLOUDY    -2  -5  87 SW6       30.35R FOG     WCI -14
SISSETON         N/A      0  -3  87 NW6       30.34F WCI -12
ABERDEEN       PTCLDY     2  -4  76 CALM      30.35R
MITCHELL       PTCLDY     2  -1  88 CALM      30.35S
PIERRE         CLOUDY    16  13  88 SE13      30.25S WCI   2
MOBRIDGE       CLOUDY    16  11  80 SE12      30.24S WCI   3
RAPID CITY     CLOUDY    19  17  92 SE10      30.05S WCI   7
$$

  *****  SOME WEATHER IN NEARBY STATES *****

CITY           SKY/WX    TMP DP  RH WIND       PRES   REMARKS
GLASGOW MT     CLOUDY    18  15  88 SE16      30.06F WCI   3
GREAT FALLS MT CLOUDY    21  19  92 CALM      29.89F
CHEYENNE WY    CLOUDY    33  22  63 W7        29.94S
SCOTTSBLUFF NE CLOUDY    15  12  88 SE3       30.01S
OMAHA NE       MOCLDY    18  13  80 N5        30.37R WCI  11
DES MOINES IA  PTCLDY    15   9  76 NW7       30.35S WCI   5
DAVENPORT IA   CLOUDY    20  14  77 NW15      30.29S WCI   6
CHICAGO IL     CLOUDY    25  17  72 W15       30.22R WCI  13
EAU CLAIRE WI  CLOUDY    17  11  77 W9        30.24S WCI   6
LA CROSSE WI   CLOUDY    21  14  74 W10       30.27R WCI  10
$$

  *****  SOME NATIONAL WEATHER *****

CITY           SKY/WX    TMP DP  RH WIND       PRES   REMARKS
LA GUARDIA NY  MOSUNNY   46  40  79 NW13      29.84R
RALEIGH NC     MOSUNNY   46  38  73 W5        30.11R
ATLANTA GA     PTSUNNY   41  36  82 NW10      30.19R
NEW ORLEANS LA PTSUNNY   49  39  68 E5        30.29R
OKLAHOMA CITY  LGT RAIN  37  30  75 SE9       30.27R
ALBUQUERQUE NM LGT RAIN  33  32  96 SE8       30.04S
SALT LAKE CITY MOCLDY    31  28  89 CALM      29.99R
LOS ANGELES CA PTCLDY    53  49  86 VRB5      29.97R
BOISE ID       CLEAR     29  26  89 CALM      29.97R
SEATTLE WA     LGT RAIN  44  38  79 E7        29.81S
$$

*** WEATHER ACROSS MANITOBA...SASKATCHEWAN AND ONTARIO ***
                ***ONTARIO***

CITY           SKY/WX    TMP DP  RH WIND       PRES   REMARKS
GERALDTON      MOCLDY     0  -6  78 N8        30.22R WCI -15
THUNDER BAY    NOT AVBL
SIOUX LOOKOUT  PTCLDY    -2  -6  84 N5        30.33R WCI -12
TORONTO        LGT RAIN  37  34  87 W16G29    29.84R
BIG TROUT LK   CLEAR    -15 -18  84 SW6       30.35S WCI -29
PICKLE LAKE    LGT SNOW  -6 -11  77 NW3       30.33R FOG
DRYDEN         CLEAR      3   1  92 NE5       30.31R WCI  -6
KENORA         PTCLDY     1   0  92 NE6       30.31S WCI -10
$$
                *** MANITOBA***

CITY           SKY/WX    TMP DP  RH WIND       PRES   REMARKS
BRANDON        FOG       -6  -9  84 NE3       30.32F VSB 1/2
DAUPHIN        CLEAR      0  -4  85 SW9       30.32F WCI -16
ISLAND LAKE    FLURRIES   5   1  85 SW6       30.34F WCI  -6
PILOT MOUND      N/A     -8 -11  84 SW2         N/A
THE PAS        CLOUDY    18  12  79 S6        30.23S WCI   9
THOMPSON       FLURRIES  16  14  93 SW12      30.21S WCI   3
WINNIPEG       CLEAR     -6 -11  77 W3        30.40S
LYNN LAKE      LGT SNOW  12  12 100 SW7       30.10S WCI   2
CHURCHILL      CLEAR      3   1  92 SW8       30.11F WCI -10
$$
                ***SASKATCHEWAN***

CITY           SKY/WX    TMP DP  RH WIND       PRES   REMARKS
ESTEVAN        FLURRIES  18  12  79 S12       30.19  WCI   5
KINDERSLEY     CLOUDY    18  14  86 SE15      29.97S WCI   3
LLOYDMINSTER   CLOUDY    18  16  93 S12G20    29.96S WCI   5
PRINCE ALBERT  NOT AVBL
REGINA         CLOUDY    18  14  86 S13G21    30.13F WCI   4
YORKTON        FLURRIES  16  12  86 S10       30.20F WCI   3
N. BATTLEFORD  CLOUDY    18  18 100 SE13      30.05F WCI   4
LA RONGE       CLOUDY    16  14  93 S12       30.11S WCI   3
SASKATOON      FLURRIES  18  18 100 S14       30.10S WCI   4
SWIFT CURRENT  CLOUDY    16  14  93 S16G24    29.97S WCI   0
$$
NOTE: THESE ARE AUTOMATED STATIONS WITH LIMITED QUALITY CONTROL
      "FAIR" INDICATES FEW OR NO CLOUDS BELOW 12,000 FEET WITH NO
      SIGNIFICANT WEATHER AND/OR OBSTRUCTIONS TO VISIBILITY.
      SKY/WX - SKY CONDITION AND SIGNIFICANT WEATHER.
      TMP - AIR TEMPERATURE.    DP   - DEWPOINT TEMPERATURE.
      RH  - RELATIVE HUMIDITY.  PRES - PRESSURE.
      HX  - HEAT INDEX.         WCI  - WIND CHILL INDEX.
$



USA.gov is the U.S. government's official web portal to all federal, state and local government web resources and services.